Main page
Satellite images Climate Cyclones Lightning AirportsFAQ Languages Contact Newsletter About
Weather : Europe Africa North America South America Asia Australia-Oceania Others

yangon-mm, Yangon, Yangon International Airport

48097

latitude: , longitude: Myanmar, elevation: 16-46N m


METAR: VYYY 211100Z 35004KT 7000 NSC 31/24 Q1010